Time,TemperatureF,DewpointF,PressureIn,WindDirection,WindDirectionDegrees,WindSpeedMPH,WindSpeedGustMPH,Humidity,HourlyPrecipIn,Conditions,Clouds,dailyrainin,SoftwareType,DateUTC
2013-07-25 00:03:00,55.5,54.0,29.92,SE,134,5.0,11.0,95,0.00,,,0.00,weatherlink.com 1.10,2013-07-25 07:03:00,
2013-07-25 00:18:00,55.3,54.0,29.92,South,190,7.0,13.0,95,0.00,,,0.00,weatherlink.com 1.10,2013-07-25 07:18:00,
2013-07-25 00:33:00,55.0,54.0,29.92,SSW,194,7.0,13.0,95,0.00,,,0.00,weatherlink.com 1.10,2013-07-25 07:33:00,
2013-07-25 00:48:00,55.1,54.0,29.92,SE,146,8.0,11.0,96,0.00,,,0.00,weatherlink.com 1.10,2013-07-25 07:48:00,
2013-07-25 01:03:00,54.9,54.0,29.92,SW,217,7.0,14.0,95,0.00,,,0.00,weatherlink.com 1.10,2013-07-25 08:03:00,
2013-07-25 01:18:00,54.7,54.0,29.92,SSE,165,5.0,12.0,96,0.00,,,0.00,weatherlink.com 1.10,2013-07-25 08:18:00,
2013-07-25 01:33:00,54.5,53.0,29.92,South,183,11.0,12.0,96,0.00,,,0.00,weatherlink.com 1.10,2013-07-25 08:33:00,
2013-07-25 01:48:00,54.4,53.0,29.92,WSW,245,11.0,12.0,96,0.00,,,0.00,weatherlink.com 1.10,2013-07-25 08:48:00,
2013-07-25 02:03:00,54.3,53.0,29.92,SW,225,9.0,12.0,96,0.00,,,0.00,weatherlink.com 1.10,2013-07-25 09:03:00,
2013-07-25 02:18:00,54.2,53.0,29.92,South,186,4.0,13.0,96,0.00,,,0.00,weatherlink.com 1.10,2013-07-25 09:18:00,
2013-07-25 02:33:00,54.1,53.0,29.92,SSW,209,6.0,12.0,96,0.00,,,0.00,weatherlink.com 1.10,2013-07-25 09:33:00,
2013-07-25 02:48:00,54.1,53.0,29.92,ESE,120,6.0,11.0,96,0.00,,,0.00,weatherlink.com 1.10,2013-07-25 09:48:00,
2013-07-25 03:03:00,54.1,53.0,29.92,SE,139,6.0,11.0,96,0.00,,,0.00,weatherlink.com 1.10,2013-07-25 10:03:00,
2013-07-25 03:19:00,53.8,53.0,29.92,SSW,203,7.0,10.0,96,0.00,,,0.00,weatherlink.com 1.10,2013-07-25 10:19:00,
2013-07-25 03:34:00,53.7,53.0,29.92,SSW,201,3.0,11.0,96,0.00,,,0.00,weatherlink.com 1.10,2013-07-25 10:34:00,
2013-07-25 03:49:00,53.6,53.0,29.92,SSW,211,5.0,12.0,96,0.00,,,0.00,weatherlink.com 1.10,2013-07-25 10:49:00,
2013-07-25 04:04:00,53.4,52.0,29.92,South,172,5.0,13.0,96,0.00,,,0.00,weatherlink.com 1.10,2013-07-25 11:04:00,
2013-07-25 04:19:00,53.3,52.0,29.92,SSE,147,5.0,15.0,96,0.00,,,0.00,weatherlink.com 1.10,2013-07-25 11:19:00,
2013-07-25 04:34:00,53.3,52.0,29.93,SSE,165,6.0,13.0,96,0.00,,,0.00,weatherlink.com 1.10,2013-07-25 11:34:00,
2013-07-25 04:49:00,53.2,52.0,29.93,SE,134,6.0,12.0,96,0.00,,,0.00,weatherlink.com 1.10,2013-07-25 11:49:00,
2013-07-25 05:04:00,53.1,52.0,29.93,South,190,7.0,12.0,96,0.00,,,0.00,weatherlink.com 1.10,2013-07-25 12:04:00,
2013-07-25 05:19:00,53.1,52.0,29.93,SSW,195,7.0,13.0,96,0.00,,,0.00,weatherlink.com 1.10,2013-07-25 12:19:00,
2013-07-25 05:34:00,53.0,52.0,29.93,SSE,153,9.0,12.0,96,0.00,,,0.00,weatherlink.com 1.10,2013-07-25 12:34:00,
2013-07-25 05:49:00,53.0,52.0,29.93,SE,144,5.0,13.0,97,0.00,,,0.00,weatherlink.com 1.10,2013-07-25 12:49:00,
2013-07-25 06:04:00,53.2,52.0,29.93,SE,146,8.0,13.0,97,0.00,,,0.00,weatherlink.com 1.10,2013-07-25 13:04:00,
2013-07-25 06:19:00,53.0,52.0,29.93,WSW,242,16.0,16.0,97,0.00,,,0.00,weatherlink.com 1.10,2013-07-25 13:19:00,
2013-07-25 06:34:00,53.1,52.0,29.94,SSE,149,4.0,14.0,97,0.00,,,0.00,weatherlink.com 1.10,2013-07-25 13:34:00,
2013-07-25 06:49:00,53.1,52.0,29.95,SSW,197,3.0,13.0,97,0.00,,,0.00,weatherlink.com 1.10,2013-07-25 13:49:00,
2013-07-25 07:04:00,53.0,52.0,29.95,SSW,204,4.0,11.0,97,0.00,,,0.00,weatherlink.com 1.10,2013-07-25 14:04:00,
2013-07-25 07:19:00,52.9,52.0,29.96,SSW,201,3.0,12.0,97,0.00,,,0.00,weatherlink.com 1.10,2013-07-25 14:19:00,
2013-07-25 07:34:00,53.2,52.0,29.96,SW,221,9.0,12.0,97,0.00,,,0.00,weatherlink.com 1.10,2013-07-25 14:34:00,
2013-07-25 07:49:00,53.1,52.0,29.96,South,173,6.0,11.0,97,0.00,,,0.00,weatherlink.com 1.10,2013-07-25 14:49:00,
2013-07-25 08:04:00,53.6,53.0,29.96,SSW,194,7.0,11.0,97,0.00,,,0.00,weatherlink.com 1.10,2013-07-25 15:04:00,
2013-07-25 08:19:00,53.5,52.0,29.97,SSW,196,6.0,12.0,96,0.00,,,0.00,weatherlink.com 1.10,2013-07-25 15:19:00,
2013-07-25 08:34:00,53.9,53.0,29.97,SSW,205,7.0,11.0,97,0.00,,,0.00,weatherlink.com 1.10,2013-07-25 15:34:00,
2013-07-25 08:49:00,54.1,53.0,29.97,SE,145,6.0,10.0,96,0.00,,,0.00,weatherlink.com 1.10,2013-07-25 15:49:00,
2013-07-25 09:04:00,54.4,53.0,29.97,South,169,4.0,11.0,96,0.00,,,0.00,weatherlink.com 1.10,2013-07-25 16:04:00,
2013-07-25 09:19:00,54.9,54.0,29.97,SSW,196,7.0,13.0,95,0.00,,,0.00,weatherlink.com 1.10,2013-07-25 16:19:00,
2013-07-25 09:34:00,54.9,54.0,29.98,SSW,197,5.0,11.0,95,0.00,,,0.00,weatherlink.com 1.10,2013-07-25 16:34:00,
2013-07-25 09:49:00,55.3,54.0,29.98,SW,225,6.0,15.0,94,0.00,,,0.00,weatherlink.com 1.10,2013-07-25 16:49:00,
2013-07-25 10:05:00,55.7,54.0,29.99,SE,143,7.0,14.0,94,0.00,,,0.00,weatherlink.com 1.10,2013-07-25 17:05:00,
2013-07-25 10:19:00,56.2,54.0,29.99,South,187,6.0,12.0,93,0.00,,,0.00,weatherlink.com 1.10,2013-07-25 17:19:00,
2013-07-25 10:34:00,56.5,55.0,29.99,SSW,211,9.0,13.0,93,0.00,,,0.00,weatherlink.com 1.10,2013-07-25 17:34:00,
2013-07-25 10:49:00,56.9,55.0,29.99,SW,219,11.0,13.0,92,0.00,,,0.00,weatherlink.com 1.10,2013-07-25 17:49:00,
2013-07-25 11:04:00,57.1,54.0,29.99,SSW,194,10.0,14.0,90,0.00,,,0.00,weatherlink.com 1.10,2013-07-25 18:04:00,
2013-07-25 11:19:00,58.2,55.0,29.99,SSW,197,6.0,14.0,89,0.00,,,0.00,weatherlink.com 1.10,2013-07-25 18:19:00,
2013-07-25 11:34:00,58.3,55.0,30.00,SW,225,11.0,16.0,89,0.00,,,0.00,weatherlink.com 1.10,2013-07-25 18:34:00,
2013-07-25 11:50:00,59.1,55.0,30.00,SSW,193,8.0,15.0,86,0.00,,,0.00,weatherlink.com 1.10,2013-07-25 18:50:00,
2013-07-25 12:05:00,58.7,55.0,30.00,SSW,211,4.0,15.0,87,0.00,,,0.00,weatherlink.com 1.10,2013-07-25 19:05:00,
2013-07-25 12:20:00,59.7,56.0,29.99,SSE,149,9.0,14.0,86,0.00,,,0.00,weatherlink.com 1.10,2013-07-25 19:20:00,
2013-07-25 12:35:00,60.3,56.0,29.99,SSW,211,8.0,15.0,84,0.00,,,0.00,weatherlink.com 1.10,2013-07-25 19:35:00,
2013-07-25 12:50:00,60.4,56.0,29.99,SW,229,11.0,15.0,84,0.00,,,0.00,weatherlink.com 1.10,2013-07-25 19:50:00,
2013-07-25 13:05:00,60.4,55.0,29.98,SW,223,11.0,15.0,83,0.00,,,0.00,weatherlink.com 1.10,2013-07-25 20:05:00,
2013-07-25 13:20:00,61.1,56.0,29.98,SW,225,13.0,18.0,82,0.00,,,0.00,weatherlink.com 1.10,2013-07-25 20:20:00,
2013-07-25 13:35:00,61.4,56.0,29.98,SSW,202,10.0,16.0,82,0.00,,,0.00,weatherlink.com 1.10,2013-07-25 20:35:00,
2013-07-25 13:50:00,62.0,56.0,29.98,SSW,194,6.0,20.0,81,0.00,,,0.00,weatherlink.com 1.10,2013-07-25 20:50:00,
2013-07-25 14:05:00,61.3,55.0,29.97,SSW,212,15.0,17.0,81,0.00,,,0.00,weatherlink.com 1.10,2013-07-25 21:05:00,
2013-07-25 14:20:00,61.1,55.0,29.97,SSW,208,8.0,20.0,81,0.00,,,0.00,weatherlink.com 1.10,2013-07-25 21:20:00,
2013-07-25 14:35:00,61.7,56.0,29.97,South,175,9.0,17.0,81,0.00,,,0.00,weatherlink.com 1.10,2013-07-25 21:35:00,
2013-07-25 14:50:00,61.2,56.0,29.97,NNE,13,7.0,18.0,82,0.00,,,0.00,weatherlink.com 1.10,2013-07-25 21:50:00,
2013-07-25 15:05:00,62.3,56.0,29.97,SSE,153,12.0,20.0,79,0.00,,,0.00,weatherlink.com 1.10,2013-07-25 22:05:00,
2013-07-25 15:20:00,62.3,56.0,29.96,South,183,7.0,18.0,81,0.00,,,0.00,weatherlink.com 1.10,2013-07-25 22:20:00,
2013-07-25 15:35:00,61.9,56.0,29.96,SW,215,12.0,19.0,81,0.00,,,0.00,weatherlink.com 1.10,2013-07-25 22:35:00,
2013-07-25 15:50:00,62.1,56.0,29.95,South,181,12.0,20.0,80,0.00,,,0.00,weatherlink.com 1.10,2013-07-25 22:50:00,
2013-07-25 16:05:00,61.4,56.0,29.95,South,176,5.0,16.0,82,0.00,,,0.00,weatherlink.com 1.10,2013-07-25 23:05:00,
2013-07-25 16:20:00,61.6,56.0,29.95,SE,129,9.0,21.0,81,0.00,,,0.00,weatherlink.com 1.10,2013-07-25 23:20:00,
2013-07-25 16:35:00,61.7,56.0,29.95,SW,217,12.0,18.0,82,0.00,,,0.00,weatherlink.com 1.10,2013-07-25 23:35:00,
2013-07-25 16:50:00,60.9,56.0,29.95,SSE,165,9.0,22.0,83,0.00,,,0.00,weatherlink.com 1.10,2013-07-25 23:50:00,
2013-07-25 17:05:00,60.3,56.0,29.95,SE,139,14.0,22.0,84,0.00,,,0.00,weatherlink.com 1.10,2013-07-26 00:05:00,
2013-07-25 17:20:00,59.9,55.0,29.95,ESE,115,12.0,23.0,84,0.00,,,0.00,weatherlink.com 1.10,2013-07-26 00:20:00,
2013-07-25 17:35:00,59.8,55.0,29.96,South,173,18.0,21.0,85,0.00,,,0.00,weatherlink.com 1.10,2013-07-26 00:35:00,
2013-07-25 17:50:00,59.6,55.0,29.96,SW,215,13.0,19.0,85,0.00,,,0.00,weatherlink.com 1.10,2013-07-26 00:50:00,
2013-07-25 18:05:00,59.2,55.0,29.96,SSE,159,13.0,18.0,86,0.00,,,0.00,weatherlink.com 1.10,2013-07-26 01:05:00,
2013-07-25 18:20:00,58.2,54.0,29.96,South,182,14.0,22.0,87,0.00,,,0.00,weatherlink.com 1.10,2013-07-26 01:20:00,
2013-07-25 18:35:00,57.9,54.0,29.96,ESE,123,15.0,20.0,88,0.00,,,0.00,weatherlink.com 1.10,2013-07-26 01:35:00,
2013-07-25 18:50:00,56.8,54.0,29.96,South,186,12.0,20.0,90,0.00,,,0.00,weatherlink.com 1.10,2013-07-26 01:50:00,
2013-07-25 19:05:00,56.2,54.0,29.96,SW,236,6.0,20.0,91,0.00,,,0.00,weatherlink.com 1.10,2013-07-26 02:05:00,
2013-07-25 19:20:00,56.0,54.0,29.97,SE,138,8.0,17.0,92,0.00,,,0.00,weatherlink.com 1.10,2013-07-26 02:20:00,
2013-07-25 19:35:00,55.5,53.0,29.97,South,185,9.0,18.0,92,0.00,,,0.00,weatherlink.com 1.10,2013-07-26 02:35:00,
2013-07-25 19:50:00,55.0,53.0,29.98,SSW,198,10.0,21.0,93,0.00,,,0.00,weatherlink.com 1.10,2013-07-26 02:50:00,
2013-07-25 20:05:00,55.0,53.0,29.98,SSW,207,4.0,18.0,94,0.00,,,0.00,weatherlink.com 1.10,2013-07-26 03:05:00,
2013-07-25 20:20:00,54.8,53.0,29.98,SSE,151,9.0,18.0,94,0.00,,,0.00,weatherlink.com 1.10,2013-07-26 03:20:00,
2013-07-25 20:35:00,54.4,53.0,29.99,SSW,206,15.0,18.0,94,0.00,,,0.00,weatherlink.com 1.10,2013-07-26 03:35:00,
2013-07-25 20:50:00,54.3,53.0,29.99,SSE,158,16.0,17.0,95,0.00,,,0.00,weatherlink.com 1.10,2013-07-26 03:50:00,
2013-07-25 21:05:00,54.2,53.0,29.99,SW,214,6.0,16.0,95,0.00,,,0.00,weatherlink.com 1.10,2013-07-26 04:05:00,
2013-07-25 21:20:00,54.3,53.0,30.00,SE,136,14.0,17.0,95,0.00,,,0.00,weatherlink.com 1.10,2013-07-26 04:20:00,
2013-07-25 21:35:00,54.0,53.0,30.00,South,169,9.0,15.0,96,0.00,,,0.00,weatherlink.com 1.10,2013-07-26 04:35:00,
2013-07-25 21:50:00,53.9,53.0,30.00,SSW,212,7.0,19.0,96,0.00,,,0.00,weatherlink.com 1.10,2013-07-26 04:50:00,
2013-07-25 22:05:00,53.9,53.0,30.01,SW,221,6.0,17.0,96,0.00,,,0.00,weatherlink.com 1.10,2013-07-26 05:05:00,
2013-07-25 22:21:00,53.9,53.0,30.01,SE,142,9.0,17.0,96,0.00,,,0.00,weatherlink.com 1.10,2013-07-26 05:21:00,
2013-07-25 22:35:00,53.9,53.0,30.01,South,183,3.0,14.0,96,0.00,,,0.00,weatherlink.com 1.10,2013-07-26 05:35:00,
2013-07-25 22:51:00,53.6,53.0,30.02,South,183,6.0,15.0,96,0.00,,,0.00,weatherlink.com 1.10,2013-07-26 05:51:00,
2013-07-25 23:06:00,53.7,53.0,30.01,SSW,198,5.0,15.0,96,0.00,,,0.00,weatherlink.com 1.10,2013-07-26 06:06:00,
2013-07-25 23:20:00,53.6,53.0,30.01,SSE,158,8.0,14.0,96,0.00,,,0.00,weatherlink.com 1.10,2013-07-26 06:20:00,
2013-07-25 23:36:00,53.6,53.0,30.01,South,187,9.0,17.0,96,0.00,,,0.00,weatherlink.com 1.10,2013-07-26 06:36:00,
2013-07-25 23:50:00,53.6,53.0,30.01,SW,233,7.0,15.0,96,0.00,,,0.00,weatherlink.com 1.10,2013-07-26 06:50:00,